This is the latest recevied weather packets stored in our database for station/object WMKL. If no packets are shown the sender has not sent any weather packets the latest 10 day(s).
| Time | Temp. | Humidity | Pressure | Rain* | Wind** | Luminosity | Snow |
|---|---|---|---|---|---|---|---|
| 1777677041 | 26.67° C | 83% | 1008 hPa | - | - | - | - |
| 1777673442 | 26.67° C | 88% | 1008 hPa | - | - | - | - |
| 1777669860 | 26.67° C | 88% | 1007 hPa | - | - | - | - |
| 1777666240 | 27.78° C | 83% | 1008 hPa | - | - | - | - |
| 1777662641 | 27.78° C | 83% | 1008 hPa | - | - | - | - |
| 1777659037 | 27.78° C | 78% | 1009 hPa | - | - | - | - |
| 1777655456 | 27.78° C | 78% | 1010 hPa | - | - | - | - |
| 1777651842 | 27.78° C | 83% | 1010 hPa | - | - | - | - |
| 1777648237 | 28.89° C | 79% | 1010 hPa | - | - | - | - |
| 1777644640 | 28.89° C | 74% | 1009 hPa | - | - | - | - |
| 1777641057 | 28.89° C | 79% | 1008 hPa | - | - | - | - |
| 1777637440 | 30° C | 74% | 1007 hPa | - | - | - | - |
| 1777633840 | 30.56° C | 70% | 1007 hPa | - | - | - | - |
| 1777630248 | 32.78° C | 62% | 1006 hPa | - | - | - | - |
| 1777626660 | 32.78° C | 66% | 1006 hPa | - | - | - | - |
| 1777623042 | 32.78° C | 66% | 1006 hPa | - | - | - | - |
| 1777619439 | 35° C | 46% | 1007 hPa | - | - | - | - |
| 1777615846 | 33.89° C | 46% | 1009 hPa | - | - | - | - |
| 1777612259 | 33.89° C | 52% | 1010 hPa | - | - | - | - |
| 1777608639 | 32.78° C | 59% | 1011 hPa | - | - | - | - |
| 1777605039 | 32.78° C | 55% | 1011 hPa | - | - | - | - |
| 1777601439 | 31.67° C | 62% | 1011 hPa | - | - | - | - |
| 1777597859 | 30° C | 74% | 1010 hPa | - | - | - | - |
| 1777594236 | 27.78° C | 78% | 1009 hPa | - | - | - | - |
| 1777590639 | 26.67° C | 83% | 1008 hPa | - | - | - | - |
* Rain since midnight (hover to see other rain measurements)
** Current wind speed in m/s (hover to see current wind gust speed)